This is the latest recevied weather packets stored in our database for station/object KA7EII-13. If no packets are shown the sender has not sent any weather packets the latest 10 day(s).
| Time | Temp. | Humidity | Pressure | Rain* | Wind** | Luminosity | Snow |
|---|---|---|---|---|---|---|---|
| 1777149399 | 10.56° C | 33% | 1099.2 hPa | 0 mm | - | 796 W/m² | - |
| 1777149095 | 10.56° C | 36% | 1099.3 hPa | 0 mm | - | 876 W/m² | - |
| 1777148789 | 9.44° C | 36% | 1099 hPa | 0 mm | - | 271 W/m² | - |
| 1777148487 | 10° C | 34% | 1099.1 hPa | 0 mm | - | 733 W/m² | - |
| 1777148182 | 10.56° C | 34% | 1099.2 hPa | 0 mm | - | 290 W/m² | - |
| 1777147878 | 10° C | 33% | 1099.2 hPa | 0 mm | - | 275 W/m² | - |
| 1777147575 | 10° C | 38% | 1099.2 hPa | 0 mm | - | 815 W/m² | - |
| 1777147269 | 9.44° C | 35% | 1099.1 hPa | 0 mm | - | 324 W/m² | - |
| 1777146965 | 8.89° C | 35% | 1099.4 hPa | 0 mm | - | 252 W/m² | - |
| 1777146661 | 10° C | 33% | 1099.3 hPa | 0 mm | - | 239 W/m² | - |
| 1777146357 | 10° C | 31% | 1099.6 hPa | 0 mm | - | 889 W/m² | - |
| 1777146054 | 10.56° C | 31% | 1099.4 hPa | 0 mm | - | 842 W/m² | - |
| 1777145750 | 10° C | 33% | 1099.3 hPa | 0 mm | - | 918 W/m² | - |
| 1777145446 | 10.56° C | 31% | 1099.2 hPa | 0 mm | - | 924 W/m² | - |
| 1777145141 | 10° C | 35% | 1099.4 hPa | 0 mm | - | 909 W/m² | - |
| 1777144836 | 9.44° C | 35% | 1099.7 hPa | 0 mm | - | 849 W/m² | - |
| 1777144535 | 9.44° C | 38% | 1099.8 hPa | 0 mm | - | 797 W/m² | - |
| 1777144232 | 9.44° C | 37% | 1099.9 hPa | 0 mm | - | 488 W/m² | - |
| 1777143927 | 10° C | 35% | 1100.1 hPa | 0 mm | - | 572 W/m² | - |
| 1777143625 | 10.56° C | 34% | 1100 hPa | 0 mm | - | 841 W/m² | - |
| 1777143320 | 8.89° C | 37% | 1099.9 hPa | 0 mm | - | 782 W/m² | - |
| 1777143017 | 8.89° C | 35% | 1100.1 hPa | 0 mm | - | 729 W/m² | - |
| 1777142712 | 9.44° C | 35% | 1100.3 hPa | 0 mm | - | 553 W/m² | - |
| 1777142410 | 8.33° C | 38% | 1100.3 hPa | 0 mm | - | 736 W/m² | - |
| 1777142110 | 8.89° C | 36% | 1100.4 hPa | 0 mm | - | 742 W/m² | - |
* Rain latest hour (hover to see other rain measurements)
** Current wind speed in m/s (hover to see current wind gust speed)